EW2670 Weather Reports


Display with metric or nautical units.
time (UTC)temp
F
wind
direction
speed
MPH
gust
MPH
rain 1hr
in
rain 24hr
in
rain mn
in
humidity
%
barometer
mb
20260510063516 48 180 2.0 4.0 0.00 0.05 0.00 87 1018.1
20260510063016 48 135 1.0 3.0 0.00 0.05 0.00 87 1018.1
20260510062516 48 135 1.0 2.0 0.00 0.05 0.00 87 1017.8
20260510062016 48 135 2.0 3.0 0.00 0.05 0.00 87 1018.0
20260510061516 48 135 1.0 2.0 0.00 0.05 0.00 87 1018.0
20260510061016 48 135 2.0 3.0 0.00 0.05 0.00 87 1017.9
20260510060536 48 135 1.0 3.0 0.00 0.05 0.00 87 1018.1
20260510060043 48 135 1.0 2.0 0.00 0.05 0.00 87 1018.1
20260510055517 48 135 1.0 3.0 0.00 0.05 0.05 87 1018.1
20260510055038 48 135 2.0 3.0 0.01 0.05 0.05 86 1018.3
20260510054537 48 135 2.0 4.0 0.02 0.05 0.05 86 1018.1
20260510054117 48 112 2.0 3.0 0.02 0.05 0.05 86 1018.2
20260510053517 48 0.0 2.0 0.03 0.05 0.05 86 1018.1
20260510053017 48 135 1.0 3.0 0.03 0.05 0.05 86 1018.1
20260510052537 48 112 1.0 4.0 0.05 0.05 0.05 86 1018.0
20260510052017 48 112 3.0 4.0 0.05 0.05 0.05 85 1017.8
20260510051516 48 112 2.0 3.0 0.05 0.05 0.05 86 1017.6
20260510051017 48 112 2.0 4.0 0.05 0.05 0.05 86 1017.6
20260510050517 48 90 5.0 8.0 0.05 0.05 0.05 85 1017.5
20260510050017 48 90 5.0 8.0 0.05 0.05 0.05 84 1017.6
20260510045517 49 112 4.0 7.0 0.05 0.05 0.05 83 1018.0
20260510045016 49 90 4.0 6.0 0.04 0.04 0.04 82 1018.0
20260510044516 49 90 2.0 3.0 0.03 0.03 0.03 82 1018.1
20260510044018 49 90 3.0 5.0 0.03 0.03 0.03 80 1018.1
20260510043516 50 112 3.0 5.0 0.02 0.02 0.02 76 1017.9
20260510043016 51 112 3.0 4.0 0.02 0.02 0.02 71 1017.9
20260510042517 51 157 2.0 4.0 0.00 0.00 0.00 69 1017.9
20260510042017 51 157 1.0 2.0 0.00 0.00 0.00 67 1017.9
20260510041517 51 292 1.0 2.0 0.00 0.00 0.00 67 1017.9
20260510041016 51 0.0 0.0 0.00 0.00 0.00 67 1017.5
20260510040516 51 0.0 1.0 0.00 0.00 0.00 66 1017.4
20260510040017 51 292 1.0 2.0 0.00 0.00 0.00 66 1017.3
20260510035516 51 292 1.0 2.0 0.00 0.00 0.00 66 1017.3
20260510035017 51 315 1.0 4.0 0.00 0.00 0.00 66 1017.1
20260510034516 52 337 4.0 6.0 0.00 0.00 0.00 65 1016.9
20260510034016 52 337 5.0 8.0 0.00 0.00 0.00 66 1016.6
20260510033517 52 0 5.0 8.0 0.00 0.00 0.00 66 1016.6
20260510033016 52 337 5.0 9.0 0.00 0.00 0.00 65 1016.6
20260510032517 52 0 5.0 10.0 0.00 0.00 0.00 66 1016.4
20260510032016 52 337 5.0 10.0 0.00 0.00 0.00 65 1016.3
20260510031516 52 337 6.0 10.0 0.00 0.00 0.00 66 1016.3
20260510031016 52 337 7.0 14.0 0.00 0.00 0.00 66 1016.0
20260510030537 52 337 7.0 14.0 0.00 0.00 0.00 65 1015.7
20260510030017 52 337 8.0 15.0 0.00 0.00 0.00 65 1015.6
20260510025516 51 337 5.0 9.0 0.00 0.00 0.00 66 1015.4
20260510025036 51 315 3.0 7.0 0.00 0.00 0.00 66 1015.3
20260510024517 52 337 5.0 11.0 0.00 0.00 0.00 66 1015.1
20260510024036 52 337 8.0 13.0 0.00 0.00 0.00 66 1014.7
20260510023536 52 337 10.0 17.0 0.00 0.00 0.00 66 1014.1
20260510023017 52 337 11.0 20.0 0.00 0.00 0.00 66 1013.9
20260510022516 52 337 10.0 17.0 0.00 0.00 0.00 66 1014.0
20260510022016 52 337 10.0 19.0 0.00 0.00 0.00 65 1013.9
20260510021516 52 337 12.0 21.0 0.00 0.00 0.00 65 1013.8
20260510021036 52 0 10.0 17.0 0.00 0.00 0.00 65 1013.4
20260510020516 52 337 11.0 18.0 0.00 0.00 0.00 65 1013.0
20260510020017 52 337 11.0 18.0 0.00 0.00 0.00 64 1012.9
20260510015517 52 337 15.0 23.0 0.00 0.00 0.00 65 1012.9
20260510015036 53 337 13.0 26.0 0.00 0.00 0.00 64 1012.4
20260510014516 53 337 10.0 19.0 0.00 0.00 0.00 64 1012.0
20260510014016 53 337 15.0 24.0 0.00 0.00 0.00 64 1011.8
20260510013516 53 337 17.0 26.0 0.00 0.00 0.00 64 1011.9
20260510013036 54 337 14.0 26.0 0.00 0.00 0.00 64 1011.6
20260510012516 54 337 12.0 23.0 0.00 0.00 0.00 63 1011.1
20260510012016 54 337 11.0 19.0 0.00 0.00 0.00 63 1010.8
20260510011516 54 337 11.0 19.0 0.00 0.00 0.00 63 1010.6
20260510011016 54 337 11.0 20.0 0.00 0.00 0.00 63 1010.5
20260510010516 55 315 13.0 23.0 0.00 0.00 0.00 62 1010.3
20260510010017 55 337 10.0 17.0 0.00 0.00 0.00 62 1010.3
20260510005517 55 337 12.0 16.0 0.00 0.00 0.00 61 1010.0
20260510005036 55 337 14.0 24.0 0.00 0.00 0.00 60 1010.0
20260510004516 55 337 14.0 27.0 0.00 0.00 0.00 60 1009.8
20260510004016 56 315 12.0 23.0 0.00 0.00 0.00 59 1009.4
20260510003536 56 337 12.0 20.0 0.00 0.00 0.00 59 1009.4
20260510003016 57 337 13.0 22.0 0.00 0.00 0.00 58 1009.5
20260510002516 57 337 13.0 22.0 0.00 0.00 0.00 57 1009.2
20260510002016 58 337 13.0 24.0 0.00 0.00 0.00 55 1009.1
20260510001516 59 337 14.0 30.0 0.00 0.00 0.00 53 1008.9
20260510001016 61 315 14.0 28.0 0.00 0.00 0.00 49 1008.4
20260510000516 64 337 15.0 27.0 0.00 0.00 0.00 42 1008.3
20260510000016 69 337 14.0 23.0 0.00 0.00 0.00 37 1008.3
20260509235516 72 337 8.0 12.0 0.00 0.00 0.00 29 1007.4
20260509235016 73 337 6.0 11.0 0.00 0.00 0.00 27 1007.0
20260509234516 73 0 4.0 7.0 0.00 0.00 0.00 29 1006.7
20260509234016 71 0 4.0 8.0 0.00 0.00 0.00 30 1006.4
20260509233516 71 0 4.0 6.0 0.00 0.00 0.00 28 1006.4
20260509233016 72 22 4.0 8.0 0.00 0.00 0.00 27 1006.4
20260509232516 73 22 5.0 10.0 0.00 0.00 0.00 28 1006.3
20260509232016 74 0 6.0 9.0 0.00 0.00 0.00 26 1006.4
20260509231516 74 22 6.0 11.0 0.00 0.00 0.00 26 1006.4
20260509231036 73 0 6.0 11.0 0.00 0.00 0.00 27 1006.2
20260509230516 73 0 5.0 9.0 0.00 0.00 0.00 27 1006.1
20260509230016 73 0 5.0 10.0 0.00 0.00 0.00 26 1006.1
20260509225516 72 0 6.0 10.0 0.00 0.00 0.00 26 1006.0
20260509225036 74 0 3.0 7.0 0.00 0.00 0.00 24 1006.1
20260509224536 73 0 3.0 6.0 0.00 0.00 0.00 25 1005.9
20260509224017 74 0 4.0 8.0 0.00 0.00 0.00 23 1005.9
20260509223516 74 0 4.0 9.0 0.00 0.00 0.00 23 1005.7
20260509223016 75 22 2.0 8.0 0.00 0.00 0.00 23 1005.9
20260509222516 74 0 5.0 9.0 0.00 0.00 0.00 23 1005.9
20260509222016 74 0 4.0 9.0 0.00 0.00 0.00 23 1006.0
20260509221516 74 0 6.0 10.0 0.00 0.00 0.00 23 1006.0
20260509221016 75 0 6.0 11.0 0.00 0.00 0.00 22 1006.0
20260509220516 75 67 5.0 9.0 0.00 0.00 0.00 23 1006.2
20260509220036 74 67 4.0 9.0 0.00 0.00 0.00 24 1006.3
20260509215536 73 67 3.0 7.0 0.00 0.00 0.00 23 1006.2
20260509215016 72 22 4.0 9.0 0.00 0.00 0.00 25 1006.1
20260509214536 72 0 4.0 7.0 0.00 0.00 0.00 25 1006.1
20260509214016 72 0 5.0 8.0 0.00 0.00 0.00 25 1006.3
20260509213516 73 0 6.0 10.0 0.00 0.00 0.00 23 1006.3
20260509213016 73 45 3.0 7.0 0.00 0.00 0.00 24 1006.4
20260509212537 72 22 3.0 7.0 0.00 0.00 0.00 23 1006.6
20260509212036 73 0 4.0 7.0 0.00 0.00 0.00 24 1006.5
20260509211517 73 45 2.0 8.0 0.00 0.00 0.00 23 1006.4
20260509211018 73 0 3.0 5.0 0.00 0.00 0.00 23 1006.6
20260509210517 73 0 6.0 10.0 0.00 0.00 0.00 23 1006.7
20260509210017 74 45 4.0 9.0 0.00 0.00 0.00 23 1006.7
20260509205517 72 67 4.0 9.0 0.00 0.00 0.00 22 1006.8
20260509205017 72 67 5.0 9.0 0.00 0.00 0.00 21 1006.8
20260509204518 73 67 4.0 10.0 0.00 0.00 0.00 22 1006.8
20260509204017 73 67 5.0 13.0 0.00 0.00 0.00 23 1006.9
20260509203517 75 67 6.0 18.0 0.00 0.00 0.00 23 1007.2
20260509203016 74 67 5.0 13.0 0.00 0.00 0.00 22 1007.1
20260509202517 74 90 9.0 14.0 0.00 0.00 0.00 22 1007.0
20260509202017 75 67 6.0 14.0 0.00 0.00 0.00 21 1007.2
20260509201515 75 90 7.0 17.0 0.00 0.00 0.00 20 1007.2
20260509201015 74 90 6.0 9.0 0.00 0.00 0.00 22 1007.1
20260509200516 74 67 6.0 10.0 0.00 0.00 0.00 22 1007.3
20260509200016 74 67 6.0 17.0 0.00 0.00 0.00 20 1007.3
20260509195516 75 112 9.0 15.0 0.00 0.00 0.00 22 1007.4
20260509195016 75 90 9.0 13.0 0.00 0.00 0.00 22 1007.5
20260509194535 75 0 6.0 10.0 0.00 0.00 0.00 20 1007.5
20260509194015 74 135 3.0 9.0 0.00 0.00 0.00 21 1007.3
20260509193556 74 90 4.0 9.0 0.00 0.00 0.00 21 1007.4
20260509193016 73 90 4.0 9.0 0.00 0.00 0.00 22 1007.5
20260509192515 74 67 6.0 13.0 0.00 0.00 0.00 20 1007.5
20260509192015 75 22 3.0 9.0 0.00 0.00 0.00 21 1007.6
20260509191517 74 0 5.0 15.0 0.00 0.00 0.00 20 1007.6
20260509191017 74 90 8.0 15.0 0.00 0.00 0.00 24 1007.5
20260509190517 73 90 8.0 16.0 0.00 0.00 0.00 22 1007.4
20260509190018 74 90 2.0 5.0 0.00 0.00 0.00 23 1007.7
20260509185539 73 135 8.0 13.0 0.00 0.00 0.00 21 1007.6
20260509185016 73 112 7.0 10.0 0.00 0.00 0.00 22 1007.6
20260509184518 73 90 6.0 14.0 0.00 0.00 0.00 22 1007.8
20260509184017 73 90 8.0 16.0 0.00 0.00 0.00 24 1008.0
20260509183517 73 90 5.0 13.0 0.00 0.00 0.00 24 1007.9
20260509183016 73 67 7.0 11.0 0.00 0.00 0.00 21 1007.7
20260509182517 73 112 7.0 13.0 0.00 0.00 0.00 25 1008.1
20260509182017 72 90 8.0 14.0 0.00 0.00 0.00 23 1008.0
20260509181518 73 67 7.0 14.0 0.00 0.00 0.00 23 1008.0
20260509181017 73 90 9.0 15.0 0.00 0.00 0.00 24 1008.1
20260509180517 73 67 10.0 19.0 0.00 0.00 0.00 26 1008.2
20260509180017 74 90 9.0 21.0 0.00 0.00 0.00 26 1008.3
20260509175518 72 67 6.0 12.0 0.00 0.00 0.00 25 1008.3
20260509175038 72 67 5.0 13.0 0.00 0.00 0.00 27 1008.5
20260509174517 73 45 5.0 13.0 0.00 0.00 0.00 24 1008.6
20260509174017 73 67 6.0 13.0 0.00 0.00 0.00 28 1008.6
20260509173518 73 67 8.0 18.0 0.00 0.00 0.00 28 1008.8
20260509173018 73 90 10.0 17.0 0.00 0.00 0.00 29 1008.8
20260509172517 72 67 9.0 17.0 0.00 0.00 0.00 27 1008.8
20260509172017 72 45 4.0 12.0 0.00 0.00 0.00 27 1008.6
20260509171518 73 22 4.0 9.0 0.00 0.00 0.00 25 1008.7
20260509171017 72 337 4.0 9.0 0.00 0.00 0.00 24 1008.7
20260509170537 72 22 1.0 5.0 0.00 0.00 0.00 22 1008.6
20260509170017 72 67 3.0 8.0 0.00 0.00 0.00 21 1008.6
20260509165517 72 270 4.0 7.0 0.00 0.00 0.00 22 1008.7
20260509165017 72 22 3.0 5.0 0.00 0.00 0.00 22 1008.6
20260509164518 72 337 3.0 6.0 0.00 0.00 0.00 20 1008.7
20260509164037 72 315 2.0 5.0 0.00 0.00 0.00 22 1008.8
20260509163517 72 337 3.0 7.0 0.00 0.00 0.00 22 1008.7
20260509163017 71 337 2.0 8.0 0.00 0.00 0.00 21 1008.6
20260509162517 71 67 4.0 10.0 0.00 0.00 0.00 24 1008.6
20260509162017 70 112 2.0 5.0 0.00 0.00 0.00 25 1008.5
20260509161517 70 90 4.0 8.0 0.00 0.00 0.00 25 1008.6
20260509161037 69 270 2.0 7.0 0.00 0.00 0.00 27 1008.5
20260509160517 69 90 2.0 6.0 0.00 0.00 0.00 27 1008.4
20260509160038 69 90 5.0 7.0 0.00 0.00 0.00 28 1008.5
20260509155517 69 112 3.0 7.0 0.00 0.00 0.00 30 1008.5
20260509155017 69 247 2.0 4.0 0.00 0.00 0.00 29 1008.5
20260509154517 69 67 2.0 5.0 0.00 0.00 0.00 29 1008.4
20260509154038 68 67 3.0 7.0 0.00 0.00 0.00 28 1008.3
20260509153517 68 67 1.0 4.0 0.00 0.00 0.00 30 1008.4
20260509153037 67 67 3.0 7.0 0.00 0.00 0.00 30 1008.4
20260509152537 68 180 1.0 3.0 0.00 0.00 0.00 32 1008.5
20260509152017 68 135 1.0 4.0 0.00 0.00 0.00 31 1008.6
20260509151517 67 180 2.0 4.0 0.00 0.00 0.00 30 1008.5
20260509151017 66 135 2.0 4.0 0.00 0.00 0.00 34 1008.6
20260509150537 65 135 3.0 6.0 0.00 0.00 0.00 32 1008.7
20260509150017 64 135 2.0 4.0 0.00 0.00 0.00 36 1008.8
20260509145517 63 135 2.0 4.0 0.00 0.00 0.00 38 1008.9
20260509145017 63 135 2.0 4.0 0.00 0.00 0.00 42 1009.0
20260509144517 62 180 2.0 4.0 0.00 0.00 0.00 44 1008.9
20260509144017 61 180 1.0 3.0 0.00 0.00 0.00 45 1008.8
20260509143517 62 202 4.0 5.0 0.00 0.00 0.00 47 1008.9
20260509143017 61 135 3.0 5.0 0.00 0.00 0.00 47 1008.9
20260509142517 61 202 6.0 8.0 0.00 0.00 0.00 49 1009.0
20260509142017 61 180 2.0 4.0 0.00 0.00 0.00 44 1009.0
20260509141537 61 135 1.0 3.0 0.00 0.00 0.00 46 1008.9
20260509141017 61 112 2.0 3.0 0.00 0.00 0.00 46 1009.0
20260509140517 61 135 2.0 3.0 0.00 0.00 0.00 47 1009.0
20260509140018 60 135 2.0 3.0 0.00 0.00 0.00 51 1009.1
20260509135517 58 135 1.0 3.0 0.00 0.00 0.00 54 1009.1
20260509135017 57 135 1.0 3.0 0.00 0.00 0.00 58 1008.9
20260509134517 56 0.0 2.0 0.00 0.00 0.00 62 1009.0
20260509134017 55 0.0 0.0 0.00 0.00 0.00 63 1009.0
20260509133517 53 0.0 0.0 0.00 0.00 0.00 67 1008.9
20260509133017 52 112 1.0 2.0 0.00 0.00 0.00 62 1008.6
20260509132517 51 0.0 2.0 0.00 0.00 0.00 66 1008.7
20260509132017 51 112 2.0 4.0 0.00 0.00 0.00 65 1008.7
20260509131517 52 90 2.0 5.0 0.00 0.00 0.00 64 1008.7
20260509131018 52 157 1.0 5.0 0.00 0.00 0.00 67 1008.6
20260509130517 52 270 2.0 3.0 0.00 0.00 0.00 66 1008.6
20260509130018 53 270 1.0 2.0 0.00 0.00 0.00 60 1008.6
20260509125517 54 22 1.0 2.0 0.00 0.00 0.00 52 1008.5
20260509125017 54 292 2.0 3.0 0.00 0.00 0.00 51 1008.3
20260509124517 54 247 2.0 3.0 0.00 0.00 0.00 53 1008.4
20260509124017 53 247 2.0 5.0 0.00 0.00 0.00 54 1008.1
20260509123517 52 247 4.0 5.0 0.00 0.00 0.00 58 1008.2
20260509123017 51 270 3.0 7.0 0.00 0.00 0.00 60 1008.2
20260509122517 52 270 3.0 9.0 0.00 0.00 0.00 57 1007.9
20260509122016 50 315 2.0 5.0 0.00 0.00 0.00 61 1007.7
20260509121517 50 270 2.0 5.0 0.00 0.00 0.00 64 1007.8
20260509121017 49 270 1.0 4.0 0.00 0.00 0.00 66 1007.6
20260509120517 48 270 3.0 7.0 0.00 0.00 0.00 70 1007.5
20260509120037 48 270 2.0 4.0 0.00 0.00 0.00 68 1007.5
20260509115516 48 202 1.0 2.0 0.00 0.00 0.00 68 1007.6
20260509115016 48 202 3.0 5.0 0.00 0.00 0.00 69 1007.5
20260509114517 47 90 3.0 7.0 0.00 0.00 0.00 70 1007.5
20260509114016 47 202 3.0 4.0 0.00 0.00 0.00 71 1007.4
20260509113516 46 112 3.0 7.0 0.00 0.00 0.00 72 1007.4
20260509113016 48 112 1.0 4.0 0.00 0.00 0.00 66 1007.2
20260509112517 48 0.0 0.0 0.00 0.00 0.00 67 1007.3
20260509112016 47 315 2.0 4.0 0.00 0.00 0.00 69 1007.3
20260509111517 47 315 1.0 3.0 0.00 0.00 0.00 68 1007.2
20260509111016 48 0.0 2.0 0.00 0.00 0.00 68 1007.1
20260509110517 47 315 2.0 3.0 0.00 0.00 0.00 71 1007.2
20260509110017 46 202 3.0 7.0 0.00 0.00 0.00 73 1007.2
20260509105516 47 0.0 4.0 0.00 0.00 0.00 71 1007.3
20260509105017 48 270 2.0 5.0 0.00 0.00 0.00 71 1007.4
20260509104516 47 292 2.0 5.0 0.00 0.00 0.00 72 1007.5
20260509104016 48 0.0 2.0 0.00 0.00 0.00 71 1007.3
20260509103517 47 292 1.0 2.0 0.00 0.00 0.00 76 1007.2
20260509103016 45 180 3.0 6.0 0.00 0.00 0.00 80 1007.1
20260509102517 45 180 2.0 4.0 0.00 0.00 0.00 78 1007.0
20260509102037 46 180 2.0 9.0 0.00 0.00 0.00 77 1007.2
20260509101516 47 0 2.0 8.0 0.00 0.00 0.00 74 1007.3
20260509101016 47 202 2.0 6.0 0.00 0.00 0.00 75 1007.3
20260509100516 47 202 1.0 2.0 0.00 0.00 0.00 76 1007.2
20260509100016 47 337 2.0 7.0 0.00 0.00 0.00 76 1007.3
20260509095536 48 315 2.0 7.0 0.00 0.00 0.00 73 1007.2
20260509095016 47 0.0 0.0 0.00 0.00 0.00 76 1007.2
20260509094517 47 180 1.0 3.0 0.00 0.00 0.00 76 1007.1
20260509094037 47 180 2.0 4.0 0.00 0.00 0.00 75 1007.0
20260509093517 46 180 1.0 2.0 0.00 0.00 0.00 76 1007.1
20260509093037 48 180 1.0 2.0 0.00 0.00 0.00 73 1007.3
20260509092516 49 225 1.0 4.0 0.00 0.00 0.00 69 1007.4
20260509092016 49 225 1.0 2.0 0.00 0.00 0.00 72 1007.1
20260509091516 46 225 1.0 3.0 0.00 0.00 0.00 79 1007.0
20260509091016 46 225 3.0 4.0 0.00 0.00 0.00 76 1006.9
20260509090516 47 0.0 0.0 0.00 0.00 0.00 76 1006.9
20260509090057 46 0.0 0.0 0.00 0.00 0.00 78 1007.0
20260509085516 46 225 1.0 3.0 0.00 0.00 0.00 74 1007.0
20260509085016 48 270 1.0 3.0 0.00 0.00 0.00 75 1007.0
20260509084537 48 0.0 2.0 0.00 0.00 0.00 76 1007.1
20260509084016 47 135 1.0 3.0 0.00 0.00 0.00 75 1007.0
20260509083516 47 202 1.0 4.0 0.00 0.00 0.00 75 1007.0
20260509083016 49 315 2.0 4.0 0.00 0.00 0.00 74 1007.0
20260509082557 48 225 3.0 5.0 0.00 0.00 0.00 76 1006.9
20260509082017 48 292 3.0 5.0 0.00 0.00 0.00 76 1006.9
20260509081516 48 225 3.0 4.0 0.00 0.00 0.00 78 1006.9
20260509081016 46 225 1.0 3.0 0.00 0.00 0.00 79 1006.9
20260509080516 46 0.0 0.0 0.00 0.00 0.00 78 1007.0
20260509080016 47 225 1.0 2.0 0.00 0.00 0.00 77 1007.0
20260509075516 48 0.0 2.0 0.00 0.00 0.00 75 1007.1
20260509075036 48 225 2.0 3.0 0.00 0.00 0.00 77 1007.0
20260509074516 49 225 1.0 3.0 0.00 0.00 0.00 76 1007.2
20260509074016 49 0.0 2.0 0.00 0.00 0.00 75 1007.1
20260509073536 49 0.0 0.0 0.00 0.00 0.00 76 1007.2
20260509073016 49 0.0 1.0 0.00 0.00 0.00 76 1007.3
20260509072536 49 0.0 2.0 0.00 0.00 0.00 73 1007.3
20260509072016 50 0.0 1.0 0.00 0.00 0.00 75 1007.5
20260509071516 50 0.0 0.0 0.00 0.00 0.00 73 1007.5
20260509071016 49 225 1.0 3.0 0.00 0.00 0.00 74 1007.6
20260509070536 49 225 1.0 3.0 0.00 0.00 0.00 76 1007.5
20260509070016 49 225 1.0 2.0 0.00 0.00 0.00 75 1007.5
20260509065556 49 225 2.0 3.0 0.00 0.00 0.00 74 1007.7
20260509065016 50 225 2.0 3.0 0.00 0.00 0.00 74 1007.6
20260509064516 50 315 1.0 3.0 0.00 0.00 0.00 71 1007.7
20260509064016 51 0.0 1.0 0.00 0.00 0.00 69 1007.7